Regional Weather Roundup
Issued by NWS Albany, NY

Home | Current Version | Previous Version | Text Only | Print | Product List | Glossary On
Versions: 1 2 3 4 5 6 7 8 9 10 11 12 13 14 15 16 17 18 19 20 21 22 23 24 25 26 27
000
ASUS41 KALY 270810
RWRALY

NEW YORK STATE HOURLY WEATHER ROUNDUP
NATIONAL WEATHER SERVICE ALBANY NY
400 AM EDT SAT AUG 27 2016

NOTE: "FAIR" INDICATES FEW OR NO CLOUDS BELOW 12,000 FEET WITH NO
SIGNIFICANT WEATHER AND/OR NO OBSTRUCTIONS TO VISIBILITY.

NYZ032-033-038>043-046>054-057>066-NYZ062>081-082-084-270900-
EAST


CITY           SKY/WX    TMP DP  RH WIND       PRES   REMARKS
ALBANY         CLEAR     66  60  81 CALM      30.14R
GLENS FALLS    CLEAR     61  58  90 CALM      30.13S
POUGHKEEPSIE   CLEAR     60  59  96 CALM      30.13R
NEWBURGH       CLEAR     64  63  94 CALM      30.15S
MONTGOMERY     PTCLDY    62  61  96 CALM      30.14R FOG
WHITE PLAINS   CLEAR     71  59  65 N8        30.12R
ISLIP          CLEAR     72  60  66 N7        30.09R
NEW YORK CITY  CLEAR     78  60  53 N8        30.10R
CENTRAL PARK     N/A     75  59  57 MISG        N/A
$$

NYZ005>009-017-018-044>046-055-056-270900-
CENTRAL


CITY           SKY/WX    TMP DP  RH WIND       PRES   REMARKS
FULTON         CLEAR     62  59  90 CALM      30.15S
SYRACUSE       CLEAR     64  62  93 CALM      30.15S
ROME           CLEAR     61  60  97 SE3       30.17S
ELMIRA         FOG       60  59  96 W3        30.18S VSB 3/4
BINGHAMTON     CLEAR     66  60  81 NW3       30.20S
MONTICELLO     CLEAR     61  57  88 N3        30.19S
$$

NYZ026>034-041>043-087-270900-
NORTH


CITY           SKY/WX    TMP DP  RH WIND       PRES   REMARKS
WATERTOWN      CLEAR     64  61  90 CALM      30.13S
FORT DRUM      NOT AVBL
MASSENA        CLEAR     58  56  93 CALM      30.13S
SARANAC LAKE   FOG       52  51  97 CALM      30.17S VSB 1/2
PLATTSBURGH    MOCLDY    65  60  84 CALM      30.11R
$$

NYZ001>004-010>016-019>021-085-270900-
WEST


CITY           SKY/WX    TMP DP  RH WIND       PRES   REMARKS
BUFFALO        PTCLDY    67  62  84 CALM      30.19R
DUNKIRK        FOG       61  60  97 CALM      30.19R VSB 3/4
JAMESTOWN      MOCLDY    61  55  82 S3        30.22R
WELLSVILLE     CLEAR     60  58  92 CALM      30.26R
ROCHESTER      CLEAR     65  64  97 CALM      30.18S
PENN YAN       CLEAR     69  62  78 VRB6      30.20R
$$

             KEY
       WCI = WIND CHILL INDEX
       VSB = VISIBILITY
       HX  = HEAT INDEX
$$




USA.gov is the U.S. government's official web portal to all federal, state and local government web resources and services.